Weather History for LRAR - September, 2013

Change the Weather History Date:

Saturday, September 14, 2013

  Actual Average Record
Temperature  
Mean Temperature 54 °F -  
Max Temperature 60 °F 67 °F 89 °F (2011)
Min Temperature 47 °F 46 °F 44 °F (1996)
Degree Days  
Heating Degree Days 12    
Growing Degree Days 4 (Base 50)    
Moisture  
Dew Point 54 °F    
Average Humidity 95    
Maximum Humidity 100    
Minimum Humidity 69    
Precipitation  
Precipitation 0.20 in - - ()
Sea Level Pressure  
Sea Level Pressure 29.99 in    
Wind  
Wind Speed 6 mph ()    
Max Wind Speed 16 mph    
Max Gust Speed -    
Visibility 6.5 miles    
Events Rain    
Averages and records for this station are not official NWS values.
T = Trace of Precipitation, MM = Missing Value Source: Averaged Metar Reports

Daily Weather History Graph

Daily Weather History Graph

Search for Another Location

Airport or City:

Trip Planner

Search our weather history database for the weather conditions in past years. The results will help you decide how hot, cold, wet, or windy it might be!

Date:

Astronomy

Sep. 14, 2013 Rise Set
Actual Time 7:11 AM EEST 7:48 PM EEST
Civil Twilight 6:41 AM EEST 8:18 PM EEST
Nautical Twilight 6:05 AM EEST 8:54 PM EEST
Astronomical Twilight 5:28 AM EEST 9:31 PM EEST
Moon 4:27 PM EEST (9/14) 1:09 AM EEST (9/14)
Length of Visible Light 13h 37m
Length of Day
12h 36m
Waxing Gibbous, 69% of the Moon is Illuminated
Sep 14
Waxing Gibbous
Sep 19
Full
Sep 27
Last Quarter
Oct 5
New
Oct 12
First Quarter

Hourly Weather History & Observations

Time (EEST) Temp. Dew Point Humidity Pressure Visibility Wind Dir Wind Speed Gust Speed Precip Events Conditions
12:00 AM 50 °F 47 °F 84% 30.04 in 12 mi SSW 2.2 mph - -   Scattered Clouds
12:00 AM 51.8 °F 51.8 °F 100% 30.01 in 6.2 mi West 9.2 mph - N/A   Unknown
1:00 AM 50 °F 47 °F 86% 30.04 in 12 mi SSW 2.2 mph - -  
1:00 AM 51.8 °F 51.8 °F 100% 30.01 in 6.2 mi West 6.9 mph - N/A   Unknown
2:00 AM - - N/A% 30.01 in 6.2 mi WSW 6.9 mph - N/A   Partly Cloudy
3:00 AM 48 °F 47 °F 93% 30.04 in 12 mi SSW 2.2 mph - -  
3:00 AM - - N/A% 30.01 in 6.2 mi SW 6.9 mph - N/A   Unknown
4:00 AM 48 °F 47 °F 94% 30.04 in 12 mi SSW 2.2 mph - -  
4:00 AM - - N/A% 30.01 in 6.2 mi WSW 6.9 mph - N/A   Partly Cloudy
5:00 AM - - N/A% 30.01 in 6.2 mi SW 4.6 mph - N/A   Partly Cloudy
5:30 AM - - N/A% 30.01 in 6.2 mi SW 6.9 mph - N/A   Unknown
6:00 AM 47 °F 47 °F 99% 30.03 in 12 mi SSW 4.5 mph - -   Scattered Clouds
6:00 AM 50.0 °F 50.0 °F 100% 30.01 in - SW 6.9 mph - N/A   Clear
6:30 AM 50.0 °F 50.0 °F 100% 30.01 in - SW 4.6 mph - N/A   Clear
7:00 AM 49 °F 49 °F 98% 30.02 in 12 mi SSW 2.2 mph - -   Mostly Cloudy
7:00 AM 50.0 °F 50.0 °F 100% 30.01 in 5.0 mi SW 4.6 mph - N/A   Scattered Clouds
7:30 AM 50.0 °F 50.0 °F 100% 30.01 in 6.2 mi SW 6.9 mph - N/A   Scattered Clouds
8:00 AM 50 °F 50 °F 98% 30.02 in 6 mi SSW 4.5 mph - - Rain Light Rain Showers
8:00 AM 51.8 °F 51.8 °F 100% 30.01 in 6.2 mi SW 6.9 mph - N/A   Scattered Clouds
8:30 AM 51.8 °F 51.8 °F 100% 30.01 in 6.2 mi SW 6.9 mph - N/A   Scattered Clouds
9:00 AM 52 °F 51 °F 94% 30.02 in 6 mi SSW 4.5 mph - -   Partly Cloudy
9:00 AM 53.6 °F 53.6 °F 100% 30.01 in - WSW 6.9 mph - N/A   Clear
9:30 AM 55.4 °F 55.4 °F 100% 30.01 in 6.2 mi WSW 9.2 mph - N/A   Unknown
10:00 AM 54 °F 52 °F 89% 30.02 in 6 mi SW 4.5 mph - -   Mostly Cloudy
10:00 AM 57.2 °F 57.2 °F 100% 30.01 in 6.2 mi WSW 9.2 mph - N/A   Partly Cloudy
10:30 AM 59.0 °F 55.4 °F 88% 30.01 in 6.2 mi West 9.2 mph - N/A   Scattered Clouds
11:00 AM 59 °F 52 °F 72% 30.01 in 6 mi WSW 4.5 mph - -   Scattered Clouds
11:00 AM 59.0 °F 55.4 °F 88% 30.01 in 6.2 mi West 11.5 mph - N/A   Scattered Clouds
11:30 AM 59.0 °F 55.4 °F 88% 30.01 in 6.2 mi West 11.5 mph - N/A   Scattered Clouds
12:00 PM 59 °F 52 °F 69% 30.02 in 6 mi WSW 4.5 mph - -   Mostly Cloudy
12:00 PM 57.2 °F 57.2 °F 100% 30.01 in 6.2 mi WNW 9.2 mph - N/A Rain Light Rain Showers
12:30 PM 57.2 °F 57.2 °F 100% 30.01 in 5.0 mi West 11.5 mph - N/A Rain Light Rain Showers
1:00 PM 57 °F 54 °F 85% 30.03 in 6 mi WSW 4.5 mph - - Rain Light Rain Showers
1:00 PM 57.2 °F 57.2 °F 100% 30.01 in 5.6 mi West 11.5 mph - N/A Rain Light Rain Showers
1:30 PM - - N/A% 30.01 in 5.6 mi WSW 9.2 mph - N/A Rain Light Rain
2:00 PM 56 °F 55 °F 94% 30.02 in 6 mi WSW 4.5 mph - - Rain Light Rain Showers
2:00 PM 55.4 °F 55.4 °F 100% 30.01 in 5.0 mi WSW 11.5 mph - N/A Rain Rain
2:30 PM 55.4 °F 55.4 °F 100% 29.98 in 5.6 mi SW 9.2 mph - N/A Rain Light Rain
3:00 PM 55 °F 54 °F 94% 30.01 in 2 mi SSW 6.7 mph - - Rain Light Rain Showers
3:00 PM 57.2 °F 57.2 °F 100% 29.98 in 6.2 mi SW 11.5 mph - N/A Rain Light Rain
3:30 PM 57.2 °F 57.2 °F 100% 29.98 in 6.2 mi SW 13.8 mph - N/A   Light Drizzle
4:00 PM 57 °F 55 °F 89% 29.99 in 6 mi SSW 6.7 mph - - Rain Light Rain Showers
4:00 PM 57.2 °F 57.2 °F 100% 29.95 in 6.2 mi WSW 13.8 mph - N/A   Light Drizzle
4:30 PM 57.2 °F 57.2 °F 100% 29.95 in 6.2 mi WSW 16.1 mph - N/A   Scattered Clouds
5:00 PM 57 °F 54 °F 88% 29.97 in 6 mi SW 6.7 mph - - Rain Light Rain Showers
5:00 PM 57.2 °F 57.2 °F 100% 29.95 in 6.2 mi WSW 11.5 mph - N/A   Mostly Cloudy
5:30 PM 57.2 °F 57.2 °F 100% 29.95 in 6.2 mi WSW 11.5 mph - N/A   Mostly Cloudy
6:00 PM 57 °F 54 °F 88% 29.95 in 6 mi SSW 6.7 mph - -   Partly Cloudy
6:00 PM 57.2 °F 57.2 °F 100% 29.95 in 6.2 mi WSW 13.8 mph - N/A Rain Light Rain
6:30 PM 55.4 °F 55.4 °F 100% 29.92 in 6.2 mi West 9.2 mph - N/A Rain Light Rain
7:00 PM 56 °F 53 °F 87% 29.94 in 6 mi SW 4.5 mph - - Rain Light Rain Showers
7:00 PM 57.2 °F 57.2 °F 100% 29.95 in 6.2 mi WNW 6.9 mph - N/A Rain Light Rain
7:30 PM 55.4 °F 55.4 °F 100% 29.92 in 5.0 mi West 11.5 mph - N/A Rain Light Rain
8:00 PM 55.4 °F 55.4 °F 100% 29.92 in 5.0 mi WSW 10.4 mph - N/A Rain Light Rain
8:30 PM 57.2 °F 57.2 °F 100% 29.92 in 6.2 mi WSW 10.4 mph - N/A Rain Light Rain
9:00 PM 56 °F 54 °F 91% 29.94 in 6 mi WSW 4.5 mph - - Rain Light Rain Showers
9:00 PM 57.2 °F 57.2 °F 100% 29.92 in 6.2 mi WSW 8.1 mph - N/A Rain Light Rain
9:30 PM 57.2 °F 57.2 °F 100% 29.92 in 6.2 mi WSW 8.1 mph - N/A   Overcast
10:00 PM 56 °F 54 °F 91% 29.94 in 6 mi SW 4.5 mph - - Rain Light Rain Showers
10:00 PM 57.2 °F 57.2 °F 100% 29.92 in 6.2 mi WSW 8.1 mph - N/A   Overcast
11:00 PM 57 °F 54 °F 87% 29.95 in 6 mi WSW 2.2 mph - -   Overcast
11:00 PM - - N/A% 29.95 in 6.2 mi West 9.2 mph - N/A   Mostly Cloudy